Chicopee, MA

2:07 PM EDT on August 26, 2016 (GMT -0400)
Westover Air Reserve Base / Metropolitan Airport

Weather History for KCEF - June, 2013

Change the Weather History Date:

Saturday, June 29, 2013

  Actual Average Record
Temperature  
Mean Temperature 76 °F -  
Max Temperature 83 °F 80 °F 94 °F (2012)
Min Temperature 69 °F 59 °F 53 °F (2015)
Cooling Degree Days 11    
Growing Degree Days 26 (Base 50)    
Moisture  
Dew Point 71 °F    
Average Humidity 93    
Maximum Humidity 100    
Minimum Humidity 63    
Precipitation  
Precipitation 0.34 in - - ()
Sea Level Pressure  
Sea Level Pressure 29.56 in    
Wind  
Wind Speed 8 mph (South)    
Max Wind Speed 18 mph    
Max Gust Speed 28 mph    
Visibility 8 miles    
Events Rain , Thunderstorm    
Averages and records for this station are not official NWS values.
T = Trace of Precipitation, MM = Missing Value Source: NWS Daily Summary

Daily Weather History Graph

Daily Weather History Graph

Search for Another Location

Airport or City:

Trip Planner

Search our weather history database for the weather conditions in past years. The results will help you decide how hot, cold, wet, or windy it might be!

Date:

Astronomy

Jun. 29, 2013 Rise Set
Actual Time 5:16 AM EDT 8:30 PM EDT
Civil Twilight 4:42 AM EDT 9:04 PM EDT
Nautical Twilight 3:57 AM EDT 9:49 PM EDT
Astronomical Twilight 3:03 AM EDT 10:42 PM EDT
Moon No Moon Rise 12:33 PM EDT (6/29)
Length of Visible Light 16h 22m
Length of Day
15h 13m
Waning Gibbous, 56% of the Moon is Illuminated
Jun 29
Waning Gibbous
Jun 30
Last Quarter
Jul 8
New
Jul 15
First Quarter
Jul 22
Full

Hourly Weather History & Observations

Time (EDT) Temp. Heat Index Dew Point Humidity Pressure Visibility Wind Dir Wind Speed Gust Speed Precip Events Conditions
12:02 AM 73.4 °F - 71.6 °F 94% 29.53 in 9.0 mi SSW 6.9 mph - N/A Rain , Thunderstorm Light Thunderstorms and Rain
12:04 AM 73.4 °F - 71.6 °F 94% 29.53 in 6.0 mi SSW 9.2 mph - N/A Rain , Thunderstorm Light Thunderstorms and Rain
12:07 AM 73.4 °F - 71.6 °F 94% 29.53 in 2.0 mi South 12.7 mph - N/A Rain , Thunderstorm Heavy Thunderstorms and Rain
12:08 AM 73.4 °F - 71.6 °F 94% 29.53 in 1.8 mi SSW 12.7 mph - N/A Rain , Thunderstorm Heavy Thunderstorms and Rain
12:09 AM 73.4 °F - 71.6 °F 94% 29.53 in 1.2 mi SSW 12.7 mph - N/A Rain , Thunderstorm Heavy Thunderstorms and Rain
12:10 AM 73.4 °F - 71.6 °F 94% 29.53 in 1.2 mi South 15.0 mph - N/A Rain , Thunderstorm Heavy Thunderstorms and Rain
12:11 AM 73.4 °F - 71.6 °F 94% 29.52 in 1.0 mi South 12.7 mph - N/A Rain , Thunderstorm Heavy Thunderstorms and Rain
12:13 AM 71.6 °F - 71.6 °F 100% 29.52 in 1.0 mi South 11.5 mph - N/A Rain , Thunderstorm Heavy Rain
12:14 AM 71.6 °F - 71.6 °F 100% 29.52 in 1.0 mi South 10.4 mph - N/A Rain Light Rain
12:16 AM 71.6 °F - 71.6 °F 100% 29.52 in 1.2 mi South 9.2 mph - N/A Rain Light Rain
12:17 AM 71.6 °F - 71.6 °F 100% 29.52 in 1.5 mi SSW 8.1 mph - N/A Rain Light Rain
12:18 AM 71.6 °F - 71.6 °F 100% 29.52 in 1.8 mi SSW 8.1 mph - N/A Rain Light Rain
12:19 AM 71.6 °F - 71.6 °F 100% 29.52 in 2.0 mi SSW 8.1 mph - N/A Rain Light Rain
12:20 AM 71.6 °F - 71.6 °F 100% 29.52 in 3.0 mi SSW 9.2 mph - N/A Rain Light Rain
12:23 AM 71.6 °F - 71.6 °F 100% 29.52 in 8.0 mi South 8.1 mph - N/A Rain Light Rain
12:27 AM 71.6 °F - 71.6 °F 100% 29.52 in 10.0 mi South 8.1 mph - N/A   Overcast
12:58 AM 71.6 °F - 71.2 °F 99% 29.52 in 9.0 mi Variable 5.8 mph - 0.32 in   Scattered Clouds
1:15 AM 71.6 °F - 71.6 °F 100% 29.50 in 10.0 mi South 5.8 mph - N/A   Mostly Cloudy
1:51 AM 71.6 °F - 71.6 °F 100% 29.49 in 9.0 mi South 5.8 mph - N/A   Scattered Clouds
1:58 AM 70.9 °F - 70.5 °F 99% 29.50 in 8.0 mi SSE 4.6 mph - N/A   Scattered Clouds
2:12 AM 71.6 °F - 71.6 °F 100% 29.49 in 9.0 mi SSE 4.6 mph - N/A   Mostly Cloudy
2:58 AM 71.2 °F - 70.9 °F 99% 29.52 in 8.0 mi South 6.9 mph - N/A   Overcast
3:19 AM 71.6 °F - 71.6 °F 100% 29.50 in 9.0 mi South 8.1 mph - N/A   Overcast
3:20 AM 71.6 °F - 71.6 °F 100% 29.50 in 9.0 mi South 8.1 mph - N/A   Overcast
3:22 AM 71.6 °F - 71.6 °F 100% 29.50 in 9.0 mi South 6.9 mph - N/A   Overcast
3:27 AM 71.6 °F - 71.6 °F 100% 29.50 in 10.0 mi South 5.8 mph - N/A   Overcast
3:41 AM 71.6 °F - 71.6 °F 100% 29.50 in 10.0 mi South 6.9 mph - N/A   Mostly Cloudy
3:43 AM 71.6 °F - 71.6 °F 100% 29.50 in 9.0 mi South 8.1 mph - N/A   Mostly Cloudy
3:46 AM 71.6 °F - 71.6 °F 100% 29.50 in 9.0 mi South 5.8 mph - N/A   Mostly Cloudy
3:48 AM 71.6 °F - 71.6 °F 100% 29.50 in 9.0 mi South 5.8 mph - N/A   Mostly Cloudy
3:53 AM 71.6 °F - 69.8 °F 94% 29.50 in 9.0 mi South 5.8 mph - N/A   Mostly Cloudy
3:56 AM 69.8 °F - 69.8 °F 100% 29.50 in 8.0 mi South 4.6 mph - N/A   Scattered Clouds
3:58 AM 69.8 °F - 69.8 °F 100% 29.52 in 8.0 mi South 4.6 mph - N/A   Scattered Clouds
4:04 AM 69.8 °F - 69.8 °F 100% 29.50 in 7.0 mi Variable 2.3 mph - N/A   Mostly Cloudy
4:05 AM 69.8 °F - 69.8 °F 100% 29.50 in 7.0 mi South 2.3 mph - N/A   Mostly Cloudy
4:08 AM 69.8 °F - 69.8 °F 100% 29.50 in 7.0 mi SE 2.3 mph - N/A   Mostly Cloudy
4:19 AM 69.8 °F - 69.8 °F 100% 29.50 in 7.0 mi SSE 3.5 mph - N/A   Mostly Cloudy
4:34 AM 69.8 °F - 69.8 °F 100% 29.50 in 7.0 mi Variable 4.6 mph - N/A   Mostly Cloudy
4:47 AM 69.8 °F - 69.8 °F 100% 29.51 in 7.0 mi South 5.8 mph - N/A   Scattered Clouds
4:53 AM 69.8 °F - 69.8 °F 100% 29.51 in 7.0 mi SSE 4.6 mph - N/A   Mostly Cloudy
4:58 AM 70.0 °F - 69.8 °F 99% 29.54 in 7.0 mi South 5.8 mph - N/A   Mostly Cloudy
5:08 AM 69.8 °F - 69.8 °F 100% 29.52 in 7.0 mi South 5.8 mph - N/A   Mostly Cloudy
5:11 AM 69.8 °F - 69.8 °F 100% 29.52 in 6.0 mi South 6.9 mph - N/A   Mostly Cloudy
5:17 AM 69.8 °F - 69.8 °F 100% 29.53 in 6.0 mi South 5.8 mph - N/A   Overcast
5:32 AM 69.8 °F - 69.8 °F 100% 29.53 in 6.0 mi South 5.8 mph - N/A   Overcast
5:58 AM 70.2 °F - 69.8 °F 99% 29.55 in 5.0 mi South 3.5 mph - N/A   Overcast
6:04 AM 69.8 °F - 69.8 °F 100% 29.54 in 4.0 mi SSE 2.3 mph - N/A   Overcast
6:15 AM 69.8 °F - 69.8 °F 100% 29.54 in 5.0 mi South 1.2 mph - N/A   Mostly Cloudy
6:25 AM 69.8 °F - 69.8 °F 100% 29.55 in 5.0 mi South 5.8 mph - N/A   Mostly Cloudy
6:43 AM 69.8 °F - 69.8 °F 100% 29.55 in 7.0 mi South 3.5 mph - N/A   Overcast
6:58 AM 70.9 °F - 70.5 °F 99% 29.57 in 7.0 mi SSW 3.5 mph - N/A   Overcast
7:17 AM 71.6 °F - 71.6 °F 100% 29.56 in 8.0 mi SSW 5.8 mph - N/A   Overcast
7:19 AM 71.6 °F - 71.6 °F 100% 29.56 in 8.0 mi SSW 5.8 mph - N/A   Overcast
7:26 AM 71.6 °F - 71.6 °F 100% 29.56 in 8.0 mi SW 4.6 mph - N/A   Overcast
7:28 AM 71.6 °F - 71.6 °F 100% 29.56 in 9.0 mi SSW 4.6 mph - N/A   Overcast
7:35 AM 71.6 °F - 71.6 °F 100% 29.55 in 9.0 mi SSW 3.5 mph - N/A   Overcast
7:58 AM 71.6 °F - 71.4 °F 99% 29.57 in 9.0 mi South 5.8 mph - N/A   Overcast
8:11 AM 71.6 °F - 71.6 °F 100% 29.56 in 10.0 mi SSW 4.6 mph - N/A   Overcast
8:14 AM 71.6 °F - 71.6 °F 100% 29.56 in 10.0 mi South 4.6 mph - N/A   Overcast
8:16 AM 71.6 °F - 71.6 °F 100% 29.56 in 10.0 mi South 4.6 mph - N/A   Overcast
8:17 AM 71.6 °F - 71.6 °F 100% 29.56 in 10.0 mi South 4.6 mph - N/A   Overcast
8:23 AM 71.6 °F - 71.6 °F 100% 29.56 in 10.0 mi South 4.6 mph - N/A   Overcast
8:24 AM 71.6 °F - 71.6 °F 100% 29.56 in 10.0 mi South 3.5 mph - N/A   Overcast
8:28 AM 73.4 °F - 71.6 °F 94% 29.56 in 10.0 mi South 5.8 mph - N/A   Mostly Cloudy
8:32 AM 73.4 °F - 71.6 °F 94% 29.56 in 10.0 mi South 5.8 mph - N/A   Mostly Cloudy
8:39 AM 73.4 °F - 71.6 °F 94% 29.56 in 10.0 mi South 4.6 mph - N/A   Overcast
8:58 AM 73.2 °F - 71.4 °F 94% 29.57 in 10.0 mi SSW 4.6 mph - N/A   Overcast
9:09 AM 73.4 °F - 71.6 °F 94% 29.57 in 10.0 mi South 6.9 mph - N/A   Scattered Clouds
9:17 AM 73.4 °F - 71.6 °F 94% 29.57 in 10.0 mi South 6.9 mph - N/A   Mostly Cloudy
9:22 AM 73.4 °F - 71.6 °F 94% 29.57 in 10.0 mi SSW 5.8 mph - N/A   Mostly Cloudy
9:35 AM 73.4 °F - 71.6 °F 94% 29.56 in 10.0 mi South 5.8 mph - N/A   Mostly Cloudy
9:44 AM 73.4 °F - 71.6 °F 94% 29.57 in 10.0 mi South 6.9 mph - N/A   Mostly Cloudy
9:58 AM 73.4 °F - 70.9 °F 92% 29.60 in 10.0 mi South 8.1 mph - N/A   Mostly Cloudy
10:24 AM 73.4 °F - 71.6 °F 94% 29.57 in 8.0 mi South 10.4 mph - N/A   Mostly Cloudy
10:26 AM 75.2 °F - 71.6 °F 89% 29.57 in 9.0 mi South 10.4 mph - N/A   Mostly Cloudy
10:27 AM 75.2 °F - 71.6 °F 89% 29.57 in 10.0 mi South 10.4 mph - N/A   Mostly Cloudy
10:32 AM 75.2 °F - 71.6 °F 89% 29.57 in 10.0 mi South 10.4 mph - N/A   Mostly Cloudy
10:33 AM 75.2 °F - 71.6 °F 89% 29.57 in 10.0 mi South 10.4 mph - N/A   Mostly Cloudy
10:38 AM 75.2 °F - 69.8 °F 83% 29.57 in 10.0 mi South 10.4 mph - N/A   Mostly Cloudy
10:40 AM 75.2 °F - 69.8 °F 83% 29.57 in 10.0 mi South 13.8 mph - N/A   Mostly Cloudy
10:58 AM 77.0 °F - 71.1 °F 82% 29.59 in 10.0 mi South 12.7 mph - N/A   Scattered Clouds
11:25 AM 77.0 °F - 71.6 °F 83% 29.58 in 10.0 mi South 10.4 mph - N/A   Mostly Cloudy
11:58 AM 79.0 °F - 71.1 °F 77% 29.60 in 10.0 mi South 13.8 mph - N/A   Mostly Cloudy
12:00 PM 78.8 °F - 69.8 °F 74% 29.58 in 10.0 mi South 12.7 mph - N/A   Mostly Cloudy
12:58 PM 80.8 °F 84.1 °F 69.6 °F 69% 29.58 in 10.0 mi South 12.7 mph - N/A   Scattered Clouds
1:58 PM 81.3 °F 84.3 °F 68.5 °F 65% 29.58 in 10.0 mi SSW 10.4 mph - N/A   Mostly Cloudy
2:58 PM 83.1 °F 86.8 °F 69.3 °F 63% 29.58 in 10.0 mi South 13.8 mph 21.9 mph N/A   Partly Cloudy
3:58 PM 82.9 °F 86.5 °F 69.3 °F 63% 29.60 in 10.0 mi South 18.4 mph 23.0 mph N/A   Clear
4:58 PM 82.6 °F 85.9 °F 68.9 °F 63% 29.60 in 10.0 mi South 17.3 mph 27.6 mph N/A   Partly Cloudy
5:58 PM 81.1 °F 84.4 °F 69.4 °F 67% 29.62 in 10.0 mi SSW 17.3 mph 23.0 mph N/A   Partly Cloudy
6:05 PM 78.8 °F - 69.8 °F 74% 29.61 in 10.0 mi South 17.3 mph 23.0 mph N/A Rain Light Rain
6:08 PM 78.8 °F - 69.8 °F 74% 29.61 in 5.0 mi SSW 17.3 mph - N/A Rain Light Rain
6:21 PM 75.2 °F - 73.4 °F 94% 29.61 in 10.0 mi South 9.2 mph - N/A   Scattered Clouds
6:58 PM 77.4 °F - 70.0 °F 78% 29.64 in 10.0 mi South 12.7 mph 24.2 mph 0.02 in   Clear
7:58 PM 76.3 °F - 69.3 °F 79% 29.65 in 10.0 mi South 11.5 mph - N/A   Clear
8:54 PM 75.2 °F - 69.8 °F 83% 29.66 in 10.0 mi South 11.5 mph - N/A   Light Drizzle
8:55 PM 75.2 °F - 69.8 °F 83% 29.66 in 10.0 mi South 12.7 mph - N/A   Clear
8:58 PM 74.7 °F - 69.1 °F 83% 29.68 in 10.0 mi South 10.4 mph - 0.00 in   Clear
9:58 PM 72.7 °F - 69.4 °F 90% 29.70 in 10.0 mi South 8.1 mph - N/A   Clear
10:58 PM 70.9 °F - 70.3 °F 98% 29.72 in 10.0 mi SSE 6.9 mph - N/A   Clear
11:33 PM 71.6 °F - 69.8 °F 94% 29.71 in 10.0 mi South 4.6 mph - N/A   Mostly Cloudy
11:46 PM 71.6 °F - 69.8 °F 94% 29.71 in 10.0 mi South 5.8 mph - N/A   Scattered Clouds
11:50 PM 71.6 °F - 69.8 °F 94% 29.71 in 10.0 mi South 5.8 mph - N/A   Mostly Cloudy
11:58 PM 71.1 °F - 70.5 °F 98% 29.73 in 10.0 mi South 5.8 mph - N/A   Mostly Cloudy